CDT,Max TemperatureF,Mean TemperatureF,Min TemperatureF,Max Dew PointF,MeanDew PointF,Min DewpointF,Max Humidity, Mean Humidity, Min Humidity, Max Sea Level PressureIn, Mean Sea Level PressureIn, Min Sea Level PressureIn, Max VisibilityMiles, Mean VisibilityMiles, Min VisibilityMiles, Max Wind SpeedMPH, Mean Wind SpeedMPH, Max Gust SpeedMPH,PrecipitationIn, CloudCover, Events, WindDirDegrees
2012-10-1,72,58,44,48,42,38,81,58,35,30.01,29.96,29.91,10,10,7,31,7,38,0.00,2,,333
2012-10-2,74,56,37,38,28,11,81,45,9,30.02,29.96,29.88,10,10,5,8,3,,0.00,0,,291
2012-10-3,81,62,43,41,33,27,63,35,14,29.95,29.87,29.78,10,10,10,23,7,30,0.00,0,,167
2012-10-4,67,56,44,46,34,26,78,51,29,30.32,30.21,29.94,10,10,7,23,14,32,0.04,2,Rain-Thunderstorm,344
2012-10-5,52,42,31,32,25,15,81,54,23,30.37,30.31,30.26,10,10,10,14,6,20,0.00,3,,348
2012-10-6,48,40,30,26,20,14,77,51,25,30.39,30.34,30.29,10,10,10,14,5,18,0.00,3,,339
2012-10-7,57,40,23,30,23,18,88,54,23,30.33,30.21,30.07,10,10,10,18,5,25,0.00,0,,236
2012-10-8,72,54,35,31,27,19,77,43,14,30.06,29.93,29.81,10,10,10,22,11,29,0.00,0,,197
2012-10-9,59,47,35,39,27,15,64,42,19,30.17,29.96,29.83,10,10,5,24,11,29,0.00,1,,304
2012-10-10,66,47,28,26,21,18,73,42,16,30.26,30.16,30.06,10,10,10,15,4,20,0.04,0,,211
2012-10-11,71,58,44,38,30,22,58,38,24,30.31,30.09,30.03,10,10,10,18,10,28,0.00,2,,109
2012-10-12,54,49,44,48,28,16,81,43,30,30.32,30.21,30.00,10,10,7,22,13,28,0.00,8,Thunderstorm,109
2012-10-13,75,64,53,65,58,50,88,78,59,29.97,29.75,29.58,10,8,2,20,9,29,0.70,5,Rain-Thunderstorm,183
2012-10-14,71,60,48,55,43,32,87,59,24,30.01,29.88,29.62,10,10,4,23,11,31,0.33,2,Rain-Thunderstorm,317
2012-10-15,77,59,41,46,39,33,85,55,20,30.00,29.91,29.76,10,10,10,12,3,,0.00,0,,155
2012-10-16,80,66,52,47,42,32,75,46,18,29.75,29.58,29.44,10,10,10,15,7,17,0.00,0,,217
2012-10-17,65,56,47,51,32,9,82,40,12,29.69,29.55,29.39,10,10,10,34,13,46,0.01,2,Rain,298
2012-10-18,54,50,45,35,24,18,57,38,26,29.72,29.66,29.62,10,10,7,39,20,51,0.00,5,Rain,294
2012-10-19,58,48,39,36,34,32,83,55,39,29.84,29.79,29.71,10,10,10,31,20,41,0.00,5,,337
2012-10-20,72,54,35,41,34,27,89,56,19,29.83,29.75,29.65,10,10,7,17,4,22,0.00,0,,131
2012-10-21,82,66,51,64,53,40,82,64,41,29.76,29.72,29.67,10,10,7,18,7,22,0.00,2,,132
2012-10-22,69,62,54,64,57,52,89,86,81,29.83,29.77,29.70,7,4,1,12,7,,0.00,7,,347
2012-10-23,82,68,53,63,54,48,95,75,30,29.82,29.72,29.63,10,6,0,20,6,25,0.00,4,Fog,197
2012-10-24,67,58,49,62,55,47,94,88,72,29.77,29.74,29.70,10,4,0,17,8,22,0.00,7,Fog-Rain,26
2012-10-25,49,42,36,46,33,25,93,75,54,30.34,30.05,29.67,10,8,2,29,20,36,0.19,8,Rain-Thunderstorm,346
2012-10-26,43,34,25,29,24,20,85,66,44,30.51,30.44,30.35,10,10,10,17,10,22,0.00,4,,341
2012-10-27,45,34,23,28,23,19,87,66,43,30.42,30.33,30.24,10,10,10,8,2,,0.00,1,,147
2012-10-28,54,42,31,29,26,23,79,54,30,30.31,30.24,30.18,10,10,10,14,6,20,0.00,3,,148
2012-10-29,63,53,43,30,27,25,56,41,24,30.21,30.13,30.05,10,10,10,18,12,24,0.00,3,,155
2012-10-30,58,46,35,30,28,26,72,53,29,30.06,30.03,30.00,10,10,10,14,7,18,0.00,1,,93
2012-10-31,67,50,32,34,30,24,84,56,26,30.08,30.03,29.97,10,10,7,8,2,,0.00,2,,183